Miscellaneous Local Product
Issued by NWS Hastings, NE

Home | Current Version | Previous Version | Graphics & Text | Print | Product List | Glossary On
Versions: 1 2 3 4 5 6 7 8 9 10 11 12 13 14 15 16 17 18 19 20 21 22 23 24 25 26 27 28 29 30 31 32 33 34 35 36 37 38 39 40 41 42 43 44 45 46 47 48 49 50
000
AXUS43 KGID 290702
MISGRI

GID CWA HOURLY WEATHER ROUNDUP
NATIONAL WEATHER SERVICE HASTINGS NE
200 AM CDT WED OCT 29 2014

NOTE: "FAIR" INDICATES FEW OR NO CLOUDS BELOW 12,000 FEET WITH NO
SIGNIFICANT WEATHER AND/OR OBSTRUCTIONS TO VISIBILITY.

...SOUTH CENTRAL NEBRASKA...

CITY           SKY/WX    TMP DP  RH WIND       PRES   REMARKS
GRAND ISLAND   CLEAR     32  26  78 W8        30.21S WCI  25
HASTINGS       CLEAR     34  24  67 W3        30.21R
KEARNEY        CLEAR     30  21  69 CALM      30.22R
ORD            CLEAR     24  20  84 NW3       30.20R
YORK           CLEAR     32  28  86 NW5       30.20S WCI  27
AURORA         CLEAR     31  25  77 NW6       30.20S WCI  26
LEXINGTON      CLEAR     26  22  84 W3        30.21S
HOLDREGE       CLEAR     29  22  74 CALM      30.21R
HEBRON         CLEAR     32  27  81 CALM      30.21R

...NEBRASKA PANHANDLE...

CITY           SKY/WX    TMP DP  RH WIND       PRES   REMARKS
CHADRON        CLEAR     21  17  84 W5        30.16F WCI  15
ALLIANCE       CLEAR     25  20  81 CALM      30.16S
SCOTTSBLUFF    CLEAR     31  27  85 E7        30.16S WCI  24
SIDNEY         CLEAR     26  20  77 SW7       30.19S WCI  18

...WESTERN AND NORTH CENTRAL NEBRASKA...

CITY           SKY/WX    TMP DP  RH WIND       PRES   REMARKS
VALENTINE      CLEAR     23  20  88 SW8       30.19S WCI  14
AINSWORTH      CLEAR     25  21  84 SW3       30.19R
ONEILL         CLEAR     30  27  88 W6        30.19S WCI  24
BROKEN BOW     CLEAR     24  18  77 CALM      30.19S
IMPERIAL       CLEAR     28  21  75 CALM      30.20S
NORTH PLATTE   CLEAR     25  20  81 CALM      30.21S
MCCOOK         CLEAR     30  24  78 SW3       30.22R

...EASTERN NEBRASKA...

CITY           SKY/WX    TMP DP  RH WIND       PRES   REMARKS
NORFOLK        CLEAR     32  28  85 W7        30.18S WCI  26
SO SIOUX CITY  CLEAR     34  30  85 W5        30.16R WCI  30
TEKAMAH        CLEAR     36  30  79 W7        30.17S WCI  30
COLUMBUS       CLEAR     28  25  86 W6        30.21R WCI  22
ALBION         CLEAR     27  23  85 NW3       30.20R
OMAHA EPPLEY   CLEAR     41  31  67 W6        30.19R
OFFUTT AFB     CLEAR     37  30  75 NW8       30.17S WCI  31
MILLARD        CLEAR     40  32  75 W3        30.18S
LINCOLN        CLEAR     33  28  81 S3        30.21S
NEBRASKA CITY  CLEAR     38  28  67 NW5       30.18F WCI  35
BEATRICE       CLEAR     33  30  88 CALM      30.20S
FALLS CITY     CLEAR     38  31  76 NW5       30.18R WCI  34

...NORTHERN KANSAS...

CITY           SKY/WX    TMP DP  RH WIND       PRES   REMARKS
GOODLAND       CLEAR     31  22  69 S6        30.22S WCI  25
HILL CITY      CLEAR     32  25  75 CALM      30.22R
PHILLIPSBURG   CLEAR     34  28  80 W6        30.22S WCI  29
SMITH CENTER   CLEAR     32  25  74 CALM      30.21S
BELOIT         CLEAR     34  30  86 CALM      30.20S
HAYS           CLEAR     37  27  65 N5        30.21R WCI  34
RUSSELL        CLEAR     41  29  62 N7        30.20R
CONCORDIA      CLEAR     41  29  62 NW3       30.20S
SALINA         CLEAR     42  32  67 NW6       30.21R
TOPEKA         CLEAR     42  39  89 CALM      30.19R



USA.gov is the U.S. government's official web portal to all federal, state and local government web resources and services.